2020-10-23 00:07:57 r, 19.99m,0000000001Hz,0000536898c,0000001.165s, 011.2C,00002191
2020-10-23 00:17:55 r, 20.05m,0000000000Hz,0000570433c,0000001.238s, 011.2C,00002191
2020-10-23 00:27:54 r, 20.04m,0000000001Hz,0000566659c,0000001.230s, 011.2C,00002191
2020-10-23 00:37:55 r, 20.03m,0000000001Hz,0000563684c,0000001.223s, 011.2C,00002191
2020-10-23 00:47:56 r, 20.07m,0000000001Hz,0000585087c,0000001.270s, 011.2C,00002191
2020-10-23 00:57:54 r, 20.03m,0000000001Hz,0000560709c,0000001.217s, 011.2C,00002191
2020-10-23 01:07:56 r, 20.23m,0000000000Hz,0000668335c,0000001.450s, 011.6C,00002191
2020-10-23 01:17:55 r, 20.52m,0000000001Hz,0000872099c,0000001.893s, 011.6C,00002191
2020-10-23 01:27:54 r, 20.42m,0000000001Hz,0000797983c,0000001.732s, 011.2C,00002191
2020-10-23 01:37:55 r, 20.51m,0000000001Hz,0000860400c,0000001.867s, 011.2C,00002191
2020-10-23 01:47:57 r, 20.55m,0000000000Hz,0000897977c,0000001.949s, 010.9C,00002191
2020-10-23 01:57:54 r, 20.03m,0000000001Hz,0000564719c,0000001.226s, 010.9C,00002191
2020-10-23 02:07:57 r, 20.07m,0000000001Hz,0000582806c,0000001.265s, 010.9C,00002191
2020-10-23 02:17:55 r, 20.02m,0000000000Hz,0000554032c,0000001.202s, 010.9C,00002191
2020-10-23 02:27:54 r, 20.18m,0000000001Hz,0000638736c,0000001.386s, 010.9C,00002191
2020-10-23 02:37:57 r, 20.19m,0000000000Hz,0000643336c,0000001.396s, 010.9C,00002191
2020-10-23 02:47:55 r, 20.27m,0000000001Hz,0000693969c,0000001.506s, 010.9C,00002191
2020-10-23 02:57:54 r, 20.24m,0000000001Hz,0000672115c,0000001.459s, 010.9C,00002191
2020-10-23 03:07:55 r, 20.47m,0000000001Hz,0000832395c,0000001.806s, 010.9C,00002191
2020-10-23 03:17:56 r, 20.58m,0000000000Hz,0000924722c,0000002.007s, 010.6C,00002191
2020-10-23 03:27:54 r, 20.67m,0000000000Hz,0001004459c,0000002.180s, 010.6C,00002191
2020-10-23 03:37:56 r, 20.55m,0000000001Hz,0000900753c,0000001.955s, 010.3C,00002191
2020-10-23 03:47:55 r, 20.51m,0000000000Hz,0000864151c,0000001.875s, 010.3C,00002191
2020-10-23 03:57:54 r, 20.57m,0000000000Hz,0000914948c,0000001.986s, 010.3C,00002191
2020-10-23 04:07:55 r, 20.85m,0000000001Hz,0001174271c,0000002.548s, 010.3C,00002191
2020-10-23 04:17:57 r, 20.31m,0000000001Hz,0000719795c,0000001.562s, 009.9C,00002191
2020-10-23 04:27:54 r, 20.34m,0000000000Hz,0000740756c,0000001.608s, 009.9C,00002191
2020-10-23 04:37:57 r, 20.03m,0000000001Hz,0000564390c,0000001.225s, 010.3C,00002191
2020-10-23 04:47:55 r, 20.06m,0000000001Hz,0000574815c,0000001.247s, 010.3C,00002191
2020-10-23 04:57:54 r, 20.27m,0000000001Hz,0000690063c,0000001.498s, 010.6C,00002191
2020-10-23 05:07:57 r, 20.08m,0000000001Hz,0000589343c,0000001.279s, 010.6C,00002191
2020-10-23 05:17:55 r, 20.08m,0000000001Hz,0000588558c,0000001.277s, 010.6C,00002191
2020-10-23 05:27:54 r, 20.20m,0000000000Hz,0000654768c,0000001.421s, 010.6C,00002191
2020-10-23 05:37:55 r, 19.72m,0000000001Hz,0000421567c,0000000.915s, 010.6C,00002191
2020-10-23 05:47:56 r, 19.68m,0000000001Hz,0000404270c,0000000.877s, 010.6C,00002191
2020-10-23 05:57:54 r, 19.57m,0000000001Hz,0000365627c,0000000.793s, 010.6C,00002191
2020-10-23 06:07:54 r, 19.54m,0000000002Hz,0000357876c,0000000.777s, 010.6C,00002191
2020-10-23 06:17:57 r, 19.40m,0000000002Hz,0000313638c,0000000.681s, 010.6C,00002191
2020-10-23 06:27:54 r, 19.28m,0000000001Hz,0000282339c,0000000.613s, 010.3C,00002191
2020-10-23 06:37:54 r, 19.27m,0000000001Hz,0000277353c,0000000.602s, 010.3C,00002191
2020-10-23 06:47:57 r, 19.17m,0000000002Hz,0000253451c,0000000.550s, 009.9C,00002191
2020-10-23 06:57:54 r, 18.94m,0000000003Hz,0000205566c,0000000.446s, 009.9C,00002191
2020-10-23 07:07:54 r, 18.09m,0000000005Hz,0000093423c,0000000.203s, 009.9C,00002191
2020-10-23 07:17:55 r, 16.39m,0000000023Hz,0000019713c,0000000.043s, 009.6C,00002191
2020-10-23 07:27:54 r, 14.41m,0000000145Hz,0000000000c,0000000.000s, 009.3C,00002191
2020-10-23 07:37:54 r, 12.33m,0000000991Hz,0000000000c,0000000.000s, 009.0C,00002191
2020-10-23 07:47:55 r, 09.90m,0000009299Hz,0000000000c,0000000.000s, 009.0C,00002191
2020-10-23 07:57:54 r, 08.26m,0000041994Hz,0000000000c,0000000.000s, 009.0C,00002191
2020-10-23 08:07:54 r, 07.23m,0000108541Hz,0000000000c,0000000.000s, 008.7C,00002191
2020-10-23 08:17:57 r, 06.64m,0000185382Hz,0000000000c,0000000.000s, 008.3C,00002191
2020-10-23 08:27:54 r, 06.17m,0000287768Hz,0000000000c,0000000.000s, 008.0C,00002191
2020-10-23 08:37:54 r, 00.00m,0000404599Hz,0000000000c,0000000.000s, 007.7C,00002191
2020-10-23 08:47:57 r, 00.00m,0000488675Hz,0000000000c,0000000.000s, 007.4C,00002191
2020-10-23 08:57:54 r, 00.00m,0000551149Hz,0000000000c,0000000.000s, 007.4C,00002191
2020-10-23 09:07:54 r, 00.00m,0000598462Hz,0000000000c,0000000.000s, 007.0C,00002191
2020-10-23 09:17:55 r, 00.00m,0000598451Hz,0000000000c,0000000.000s, 007.7C,00002191
2020-10-23 09:27:54 r, 00.00m,0000598309Hz,0000000000c,0000000.000s, 009.3C,00002191
2020-10-23 09:37:54 r, 00.00m,0000598189Hz,0000000000c,0000000.000s, 010.3C,00002191
2020-10-23 09:47:55 r, 00.00m,0000598090Hz,0000000000c,0000000.000s, 011.6C,00002191
2020-10-23 09:57:54 r, 00.00m,0000598082Hz,0000000000c,0000000.000s, 012.2C,00002191
2020-10-23 10:07:54 r, 00.00m,0000597968Hz,0000000000c,0000000.000s, 012.5C,00002191
2020-10-23 10:17:56 r, 00.00m,0000598045Hz,0000000000c,0000000.000s, 013.2C,00002191
2020-10-23 10:27:54 r, 00.00m,0000597881Hz,0000000000c,0000000.000s, 013.5C,00002191
2020-10-23 10:37:54 r, 00.00m,0000597816Hz,0000000000c,0000000.000s, 014.1C,00002191
2020-10-23 10:47:57 r, 00.00m,0000597810Hz,0000000000c,0000000.000s, 014.8C,00002191
2020-10-23 10:57:55 r, 00.00m,0000597781Hz,0000000000c,0000000.000s, 015.1C,00002191
2020-10-23 11:07:54 r, 00.00m,0000597591Hz,0000000000c,0000000.000s, 016.1C,00002191
2020-10-23 11:17:57 r, 00.00m,0000597632Hz,0000000000c,0000000.000s, 015.7C,00002191
2020-10-23 11:27:55 r, 00.00m,0000597758Hz,0000000000c,0000000.000s, 014.5C,00002191
2020-10-23 11:37:54 r, 00.00m,0000597665Hz,0000000000c,0000000.000s, 015.1C,00002191
2020-10-23 11:47:55 r, 00.00m,0000597655Hz,0000000000c,0000000.000s, 015.7C,00002191
2020-10-23 11:57:56 r, 00.00m,0000597720Hz,0000000000c,0000000.000s, 015.4C,00002191
2020-10-23 12:07:54 r, 00.00m,0000597724Hz,0000000000c,0000000.000s, 015.1C,00002191
2020-10-23 12:17:56 r, 00.00m,0000597830Hz,0000000000c,0000000.000s, 014.5C,00002191
2020-10-23 12:27:55 r, 00.00m,0000597878Hz,0000000000c,0000000.000s, 013.8C,00002191
2020-10-23 12:37:54 r, 00.00m,0000597934Hz,0000000000c,0000000.000s, 013.5C,00002191
2020-10-23 12:47:55 r, 00.00m,0000597863Hz,0000000000c,0000000.000s, 013.5C,00002191
2020-10-23 12:57:57 r, 00.00m,0000597894Hz,0000000000c,0000000.000s, 013.5C,00002191
2020-10-23 13:07:54 r, 00.00m,0000597857Hz,0000000000c,0000000.000s, 013.5C,00002191
2020-10-23 13:17:57 r, 00.00m,0000597759Hz,0000000000c,0000000.000s, 013.5C,00002191
2020-10-23 13:27:55 r, 00.00m,0000597808Hz,0000000000c,0000000.000s, 014.1C,00002191
2020-10-23 13:37:54 r, 00.00m,0000597592Hz,0000000000c,0000000.000s, 015.7C,00002191
2020-10-23 13:47:57 r, 00.00m,0000597754Hz,0000000000c,0000000.000s, 015.7C,00002191
2020-10-23 13:57:55 r, 00.00m,0000597848Hz,0000000000c,0000000.000s, 014.5C,00002191
2020-10-23 14:07:54 r, 00.00m,0000597927Hz,0000000000c,0000000.000s, 013.5C,00002191
2020-10-23 14:17:55 r, 00.00m,0000597943Hz,0000000000c,0000000.000s, 013.5C,00002191
2020-10-23 14:27:55 r, 00.00m,0000597951Hz,0000000000c,0000000.000s, 013.2C,00002191
2020-10-23 14:37:54 r, 00.00m,0000597904Hz,0000000000c,0000000.000s, 013.2C,00002191
2020-10-23 14:47:56 r, 00.00m,0000597902Hz,0000000000c,0000000.000s, 013.8C,00002191
2020-10-23 14:57:55 r, 00.00m,0000597846Hz,0000000000c,0000000.000s, 013.5C,00002191
2020-10-23 15:07:54 r, 00.00m,0000597912Hz,0000000000c,0000000.000s, 013.2C,00002191
2020-10-23 15:17:57 r, 00.00m,0000598010Hz,0000000000c,0000000.000s, 013.2C,00002191
2020-10-23 15:27:55 r, 00.00m,0000598029Hz,0000000000c,0000000.000s, 013.2C,00002191
2020-10-23 15:37:54 r, 00.00m,0000597854Hz,0000000000c,0000000.000s, 013.8C,00002191
2020-10-23 15:47:57 r, 00.00m,0000597765Hz,0000000000c,0000000.000s, 014.1C,00002191
2020-10-23 15:57:55 r, 00.00m,0000597706Hz,0000000000c,0000000.000s, 014.8C,00002191
2020-10-23 16:07:54 r, 00.00m,0000597911Hz,0000000000c,0000000.000s, 014.5C,00002191
2020-10-23 16:17:55 r, 00.00m,0000597838Hz,0000000000c,0000000.000s, 013.8C,00002191
2020-10-23 16:27:56 r, 00.00m,0000597860Hz,0000000000c,0000000.000s, 013.2C,00002191
2020-10-23 16:37:54 r, 00.00m,0000597930Hz,0000000000c,0000000.000s, 012.8C,00002191
2020-10-23 16:47:56 r, 00.00m,0000597934Hz,0000000000c,0000000.000s, 013.2C,00002191
2020-10-23 16:57:55 r, 00.00m,0000597867Hz,0000000000c,0000000.000s, 013.5C,00002191
2020-10-23 17:07:54 r, 00.00m,0000597885Hz,0000000000c,0000000.000s, 014.5C,00002191
2020-10-23 17:17:55 r, 00.00m,0000597772Hz,0000000000c,0000000.000s, 015.1C,00002191
2020-10-23 17:27:57 r, 00.00m,0000597831Hz,0000000000c,0000000.000s, 014.5C,00002191
2020-10-23 17:37:54 r, 00.00m,0000597823Hz,0000000000c,0000000.000s, 013.8C,00002191
2020-10-23 17:47:57 r, 00.00m,0000593405Hz,0000000000c,0000000.000s, 013.5C,00002191
2020-10-23 17:57:55 r, 05.88m,0000375242Hz,0000000000c,0000000.000s, 012.8C,00002191
2020-10-23 18:07:54 r, 06.80m,0000161182Hz,0000000000c,0000000.000s, 012.5C,00002191
2020-10-23 18:17:57 r, 07.53m,0000082778Hz,0000000000c,0000000.000s, 011.6C,00002191
2020-10-23 18:27:55 r, 08.61m,0000030580Hz,0000000000c,0000000.000s, 010.6C,00002191
2020-10-23 18:37:54 r, 10.26m,0000006662Hz,0000000000c,0000000.000s, 009.6C,00002191
2020-10-23 18:47:55 r, 12.34m,0000000983Hz,0000000000c,0000000.000s, 009.0C,00002191
2020-10-23 18:57:56 r, 14.55m,0000000128Hz,0000000000c,0000000.000s, 008.7C,00002191
2020-10-23 19:07:54 r, 16.45m,0000000022Hz,0000020959c,0000000.045s, 008.3C,00002191
2020-10-23 19:17:56 r, 17.82m,0000000006Hz,0000073824c,0000000.160s, 008.0C,00002191
2020-10-23 19:27:55 r, 19.04m,0000000002Hz,0000226539c,0000000.492s, 008.0C,00002191
2020-10-23 19:37:54 r, 19.02m,0000000002Hz,0000223045c,0000000.484s, 008.3C,00002191
2020-10-23 19:47:55 r, 20.10m,0000000001Hz,0000597211c,0000001.296s, 008.7C,00002191
2020-10-23 19:57:57 r, 19.76m,0000000002Hz,0000439562c,0000000.954s, 008.7C,00002191
2020-10-23 20:07:54 r, 19.89m,0000000000Hz,0000496350c,0000001.077s, 008.7C,00002191
2020-10-23 20:17:57 r, 19.71m,0000000001Hz,0000418473c,0000000.908s, 008.7C,00002191
2020-10-23 20:27:55 r, 19.97m,0000000001Hz,0000530745c,0000001.152s, 008.7C,00002191
2020-10-23 20:37:54 r, 19.88m,0000000001Hz,0000489613c,0000001.063s, 008.3C,00002191
2020-10-23 20:47:57 r, 19.49m,0000000002Hz,0000343755c,0000000.746s, 008.3C,00002191
2020-10-23 20:57:55 r, 19.52m,0000000002Hz,0000353329c,0000000.767s, 008.3C,00002191
2020-10-23 21:07:54 r, 19.26m,0000000001Hz,0000278354c,0000000.604s, 008.3C,00002191
2020-10-23 21:17:55 r, 19.01m,0000000003Hz,0000219813c,0000000.477s, 008.7C,00002191
2020-10-23 21:27:55 r, 19.21m,0000000002Hz,0000261976c,0000000.569s, 009.0C,00002191
2020-10-23 21:37:54 r, 18.75m,0000000003Hz,0000172717c,0000000.375s, 009.3C,00002191
2020-10-23 21:47:56 r, 18.86m,0000000002Hz,0000189966c,0000000.412s, 009.9C,00002191
2020-10-23 21:57:55 r, 18.74m,0000000002Hz,0000170449c,0000000.370s, 009.9C,00002191
2020-10-23 22:07:54 r, 18.70m,0000000003Hz,0000164762c,0000000.358s, 010.3C,00002191
2020-10-23 22:17:55 r, 18.82m,0000000003Hz,0000183363c,0000000.398s, 010.3C,00002191
2020-10-23 22:27:57 r, 18.86m,0000000002Hz,0000190885c,0000000.414s, 010.6C,00002191
2020-10-23 22:37:54 r, 18.67m,0000000003Hz,0000159938c,0000000.347s, 010.3C,00002191
2020-10-23 22:47:57 r, 18.85m,0000000002Hz,0000188918c,0000000.410s, 010.6C,00002191
2020-10-23 22:57:55 r, 18.61m,0000000003Hz,0000151476c,0000000.329s, 010.6C,00002191
2020-10-23 23:07:54 r, 18.52m,0000000003Hz,0000140253c,0000000.304s, 010.6C,00002191
2020-10-23 23:17:54 r, 18.51m,0000000003Hz,0000138328c,0000000.300s, 010.6C,00002191
2020-10-23 23:27:56 r, 18.53m,0000000003Hz,0000140660c,0000000.305s, 010.6C,00002191
2020-10-23 23:37:54 r, 18.98m,0000000002Hz,0000213250c,0000000.463s, 010.6C,00002191
2020-10-23 23:47:54 r, 18.82m,0000000003Hz,0000183316c,0000000.398s, 010.6C,00002191
2020-10-23 23:57:57 r, 18.86m,0000000002Hz,0000191045c,0000000.415s, 010.3C,00002191
